Location: Ayer Observatory
(42.2600°N, 71.0700°W)
Time: 05:38:08
(UTC-04:00)

FO-29 - Pass Details

Date: 28 August 2019
Orbit: 800 x 1321 km, 98.6° (Epoch: 14 September)

Event Time Altitude Azimuth Distance (km) Brightness Sun altitude
Exits shadow 03:45:45 58° 251° (WSW) 937 9.1 -23.7°
Maximum altitude 03:45:53 59° 259° (W) 934 9.1 -23.6°
Drops below altitude 10° 03:51:00 10° 339° (NNW) 2,385 11.7 -22.9°
Sets 03:53:22 0° 343° (NNW) 3,330 12.6 -22.6°
